Regional Weather Roundup
Issued by NWS Sterling, VA

Home | Current Version | Previous Version | Graphics & Text | Print | Product List | Glossary On
Versions: 1 2 3 4 5 6 7 8 9 10 11 12 13 14 15 16 17 18 19 20 21 22 23 24 25 26 27 28 29 30 31 32 33 34 35 36 37 38 39 40 41 42 43 44 45
000
ASUS41 KLWX 271010
RWRLWX

REGIONAL WEATHER ROUNDUP
NATIONAL WEATHER SERVICE BALTIMORE MD/WASHINGTON DC
500 AM EST FRI FEB 27 2015

Note: "FAIR" indicates few or no clouds below 12,000 feet
with no significant weather and/or obstructions to visibility.
 TC=TEMPERATURE CELSIUS

 * =Non NWS site. Station does not report precipitation (e.g. rain,
    snow, etc.), thunder, or fog.

DCZ001-MDZ009-015-VAZ040>042-051-053>054-271100-
WASHINGTON METRO

CITY           SKY/WX    TMP DP  RH WIND       PRES   REMARKS
WASHINGTON NAT CLOUDY    32  24  72 CALM      30.25R
DULLES         CLOUDY    28  20  71 NW7       30.24R
ANDREWS AFB    PTCLDY    28  24  84 CALM      30.23R
FT BELVOIR     CLOUDY    31  25  79 CALM      30.25R
QUANTICO       CLOUDY    32  25  75 CALM      30.26R
COLLEGE PARK*  CLOUDY    30  27  86 CALM      30.24R
LEESBURG*      CLOUDY    30  25  80 N9        30.25R WCI  22
MANASSAS*      CLOUDY    30  28  93 N7        30.24R
GAITHERSBURG*  MOCLDY    27  19  74 CALM      30.26R

$$

MDZ006>007-011-014-271100-
BALTIMORE METRO

CITY           SKY/WX    TMP DP  RH WIND       PRES   REMARKS
BWI AIRPORT    MOCLDY    26  21  81 CALM      30.24R
MD SCIENCE CTR   N/A     30  22  72 MISG      30.25R
MARTIN STATE   PTCLDY    30  27  86 CALM      30.26R
ANNAPOLIS      CLOUDY    28  24  85 NW3       30.25R FOG
FORT MEADE*    CLOUDY    27  23  86 CALM      30.26R

$$

MDZ012-015-019>023-271100-
MARYLAND EASTERN SHORE

CITY           SKY/WX    TMP DP  RH WIND       PRES   REMARKS
OCEAN CITY     CLOUDY    18  15  88 CALM      30.24R FOG
SALISBURY      CLOUDY    23  19  85 CALM      30.24R
BAY BRIDGE AP*   N/A     28  23  80 CALM      30.25R
CAMBRIDGE*     PTCLDY    28  25  86 CALM      30.23R
EASTON*        PTCLDY    29  26  90 CALM      30.28R

$$

MDZ017>025-271100-
SOUTHERN MARYLAND

CITY           SKY/WX    TMP DP  RH WIND       PRES   REMARKS
PATUXENT RIVER CLOUDY    27  23  85 CALM      30.24R
ST INIGOES     CLOUDY    27  22  81 CALM      30.24R
LEONARDTOWN*   CLOUDY    28  25  86 CALM      30.25R

$$

MDZ003>005-271100-
NORTH CENTRAL MARYLAND

CITY           SKY/WX    TMP DP  RH WIND       PRES   REMARKS
FREDERICK*     MOCLDY    27  18  69 N5        30.28R
HAGERSTOWN APT CLOUDY    24  11  57 W13       30.24R WCI  12
WESTMINSTER*   CLOUDY    27  18  69 CALM      30.21R

$$

MDZ501>502-271100-
WESTERN MARYLAND

CITY           SKY/WX    TMP DP  RH WIND       PRES   REMARKS
OAKLAND*       CLOUDY     5   5 100 NW7       30.10R FOG
CUMBERLAND*    PTCLDY    19   7  58 N9        30.33R WCI   9

$$

VAZ025>031-271100-
SHENANDOAH VALLEY

CITY           SKY/WX    TMP DP  RH WIND       PRES   REMARKS
WINCHESTER*    MOCLDY    28  12  50 N7        30.23R
FRONT ROYAL*   PTSUNNY   27  19  74 CALM      30.22R
LURAY*         PTSUNNY   30  27  86 NE6       30.20R
NEW MARKET*    FAIR      23  20  88 CALM      30.19R
STAUNTON*      PTCLDY    21  18  90 CALM      30.20R FOG
WAYNESBORO*    FAIR      27  16  63 W5        30.15R

$$

WVZ021-048>050-054>055-271100-
EASTERN WEST VIRGINIA PANHANDLE

CITY           SKY/WX    TMP DP  RH WIND       PRES   REMARKS
MARTINSBURG    MOCLDY    26  12  55 NW5       30.25R
PETERSBURG*    NOT AVBL

$$

VAZ036>039-050-271100-
CENTRAL FOOTHILLS

CITY           SKY/WX    TMP DP  RH WIND       PRES   REMARKS
CHARLOTTESVILL MOCLDY    27  24  89 CALM      30.19R
CULPEPER*      CLOUDY    28  27  93 CALM      30.23R
ORANGE*        CLOUDY    23  23 100 CALM      30.23R FOG
GORDONSVILLE*  PTSUNNY   24  23  96 CALM      30.20R FOG
WARRENTON*     CLOUDY    31  30  94 N5        30.22R

$$

VAZ055>057-271100-
NORTH AND CENTRAL PIEDMONT

CITY           SKY/WX    TMP DP  RH WIND       PRES   REMARKS
FREDERICKSBRG* CLOUDY    32  29  90 CALM      30.23R
STAFFORD*      CLOUDY    30  29  98 CALM      30.28R

$$

NCZ024-NYZ072-PAZ021-071-VAZ022-071-271100-
OTHER REGIONAL OBSERVATIONS

CITY           SKY/WX    TMP DP  RH WIND       PRES   REMARKS
NEW YORK CITY  MOCLDY    20   3  48 NE5       30.27R
PHILADELPHIA   FLURRIES  25  15  66 N9        30.28R WCI  15
PITTSBURGH     MOCLDY     5   1  83 N3        30.33R
ROANOKE        CLEAR     30  15  53 NW10      30.21R WCI  21
RICHMOND       CLOUDY    31  28  89 CALM      30.23R FOG
RALEIGH        PTCLDY    25  22  88 CALM      30.22R FOG

$$

ANZ530>537-271100-
MARINE OBSERVATIONS

STATION/POSITION TIME  TEMP    WIND        PRES
                       AIR SEA DIR/SP/G
                 (UTC) (F)     (DEG/KT/KT) (MB)
THOMAS PT LIGHT  1000   30 31  250/  1/  1 1025.5R
BALT KEY BRIDGE  0900   29      80/  1/  1 1023.2R
COVE POINT       0900   28        CALM     1023.1R
LEWISETTA        0900   26 32     CALM     1023.4R
SOLOMONS ISLAND  0900      32                N/A

$$




USA.gov is the U.S. government's official web portal to all federal, state and local government web resources and services.